Time,TemperatureF,DewpointF,PressureIn,WindDirection,WindDirectionDegrees,WindSpeedMPH,WindSpeedGustMPH,Humidity,HourlyPrecipIn,Conditions,Clouds,dailyrainin,SoftwareType,DateUTC
2013-01-18 00:00:00,30.0,-99.9,-100.00,WSW,255,3.0,4.0,-999,0.00,,,-99.99,,2013-01-18 07:00:00,
2013-01-18 00:33:00,30.0,-99.9,-100.00,WSW,255,3.0,4.0,-999,0.00,,,-99.99,,2013-01-18 07:33:00,
2013-01-18 00:43:00,30.0,-99.9,-100.00,WSW,255,3.0,4.0,-999,0.00,,,-99.99,,2013-01-18 07:43:00,
2013-01-18 00:53:00,30.0,-99.9,-100.00,WSW,255,3.0,4.0,-999,0.00,,,-99.99,,2013-01-18 07:53:00,
2013-01-18 01:00:00,29.0,-99.9,-100.00,West,274,3.0,4.0,-999,0.00,,,-99.99,,2013-01-18 08:00:00,
2013-01-18 01:33:00,29.0,-99.9,-100.00,West,274,3.0,4.0,-999,0.00,,,-99.99,,2013-01-18 08:33:00,
2013-01-18 01:43:00,29.0,-99.9,-100.00,West,274,3.0,4.0,-999,0.00,,,-99.99,,2013-01-18 08:43:00,
2013-01-18 01:53:00,29.0,-99.9,-100.00,West,274,3.0,4.0,-999,0.00,,,-99.99,,2013-01-18 08:53:00,
2013-01-18 02:00:00,28.0,-99.9,-100.00,West,269,4.0,7.0,-999,0.00,,,-99.99,,2013-01-18 09:00:00,
2013-01-18 02:33:00,28.0,-99.9,-100.00,West,269,4.0,7.0,-999,0.00,,,-99.99,,2013-01-18 09:33:00,
2013-01-18 02:43:00,28.0,-99.9,-100.00,West,269,4.0,7.0,-999,0.00,,,-99.99,,2013-01-18 09:43:00,
2013-01-18 02:53:00,28.0,-99.9,-100.00,West,269,4.0,7.0,-999,0.00,,,-99.99,,2013-01-18 09:53:00,
2013-01-18 03:00:00,28.0,-99.9,-100.00,WSW,256,4.0,7.0,-999,0.00,,,-99.99,,2013-01-18 10:00:00,
2013-01-18 03:33:00,28.0,-99.9,-100.00,WSW,256,4.0,7.0,-999,0.00,,,-99.99,,2013-01-18 10:33:00,
2013-01-18 03:43:00,28.0,-99.9,-100.00,WSW,256,4.0,7.0,-999,0.00,,,-99.99,,2013-01-18 10:43:00,
2013-01-18 03:53:00,28.0,-99.9,-100.00,WSW,256,4.0,7.0,-999,0.00,,,-99.99,,2013-01-18 10:53:00,
2013-01-18 05:00:00,29.0,-99.9,-100.00,WSW,257,5.0,7.0,-999,0.00,,,-99.99,,2013-01-18 12:00:00,
2013-01-18 05:33:00,29.0,-99.9,-100.00,WSW,257,5.0,7.0,-999,0.00,,,-99.99,,2013-01-18 12:33:00,
2013-01-18 05:43:00,29.0,-99.9,-100.00,WSW,257,5.0,7.0,-999,0.00,,,-99.99,,2013-01-18 12:43:00,
2013-01-18 05:53:00,29.0,-99.9,-100.00,WSW,257,5.0,7.0,-999,0.00,,,-99.99,,2013-01-18 12:53:00,
2013-01-18 06:00:00,28.0,-99.9,-100.00,West,260,5.0,8.0,-999,0.00,,,-99.99,,2013-01-18 13:00:00,
2013-01-18 06:34:00,28.0,-99.9,-100.00,West,260,5.0,8.0,-999,0.00,,,-99.99,,2013-01-18 13:34:00,
2013-01-18 06:43:00,28.0,-99.9,-100.00,West,260,5.0,8.0,-999,0.00,,,-99.99,,2013-01-18 13:43:00,
2013-01-18 06:53:00,28.0,-99.9,-100.00,West,260,5.0,8.0,-999,0.00,,,-99.99,,2013-01-18 13:53:00,
2013-01-18 07:00:00,28.0,-99.9,-100.00,West,261,5.0,7.0,-999,0.00,,,-99.99,,2013-01-18 14:00:00,
2013-01-18 07:34:00,28.0,-99.9,-100.00,West,261,5.0,7.0,-999,0.00,,,-99.99,,2013-01-18 14:34:00,
2013-01-18 07:43:00,28.0,-99.9,-100.00,West,261,5.0,7.0,-999,0.00,,,-99.99,,2013-01-18 14:43:00,
2013-01-18 07:53:00,28.0,-99.9,-100.00,West,261,5.0,7.0,-999,0.00,,,-99.99,,2013-01-18 14:53:00,
2013-01-18 08:00:00,27.0,-99.9,-100.00,WSW,251,4.0,7.0,-999,0.00,,,-99.99,,2013-01-18 15:00:00,
2013-01-18 08:34:00,27.0,-99.9,-100.00,WSW,251,4.0,7.0,-999,0.00,,,-99.99,,2013-01-18 15:34:00,
2013-01-18 08:44:00,27.0,-99.9,-100.00,WSW,251,4.0,7.0,-999,0.00,,,-99.99,,2013-01-18 15:44:00,
2013-01-18 08:54:00,27.0,-99.9,-100.00,WSW,251,4.0,7.0,-999,0.00,,,-99.99,,2013-01-18 15:54:00,
2013-01-18 09:00:00,29.0,-99.9,-100.00,WSW,258,4.0,6.0,-999,0.00,,,-99.99,,2013-01-18 16:00:00,
2013-01-18 09:34:00,29.0,-99.9,-100.00,WSW,258,4.0,6.0,-999,0.00,,,-99.99,,2013-01-18 16:34:00,
2013-01-18 09:43:00,29.0,-99.9,-100.00,WSW,258,4.0,6.0,-999,0.00,,,-99.99,,2013-01-18 16:43:00,
2013-01-18 09:53:00,29.0,-99.9,-100.00,WSW,258,4.0,6.0,-999,0.00,,,-99.99,,2013-01-18 16:53:00,
2013-01-18 10:00:00,31.0,-99.9,-100.00,West,260,3.0,6.0,-999,0.00,,,-99.99,,2013-01-18 17:00:00,
2013-01-18 10:34:00,31.0,-99.9,-100.00,West,260,3.0,6.0,-999,0.00,,,-99.99,,2013-01-18 17:34:00,
2013-01-18 10:43:00,31.0,-99.9,-100.00,West,260,3.0,6.0,-999,0.00,,,-99.99,,2013-01-18 17:43:00,
2013-01-18 10:54:00,31.0,-99.9,-100.00,West,260,3.0,6.0,-999,0.00,,,-99.99,,2013-01-18 17:54:00,
2013-01-18 11:00:00,32.0,-99.9,-100.00,WSW,238,2.0,6.0,-999,0.00,,,-99.99,,2013-01-18 18:00:00,
2013-01-18 11:34:00,32.0,-99.9,-100.00,WSW,238,2.0,6.0,-999,0.00,,,-99.99,,2013-01-18 18:34:00,
2013-01-18 11:44:00,32.0,-99.9,-100.00,WSW,238,2.0,6.0,-999,0.00,,,-99.99,,2013-01-18 18:44:00,
2013-01-18 11:53:00,32.0,-99.9,-100.00,WSW,238,2.0,6.0,-999,0.00,,,-99.99,,2013-01-18 18:53:00,
2013-01-18 12:00:00,34.0,-99.9,-100.00,SW,220,1.0,3.0,-999,0.00,,,-99.99,,2013-01-18 19:00:00,
2013-01-18 12:33:00,34.0,-99.9,-100.00,SW,220,1.0,3.0,-999,0.00,,,-99.99,,2013-01-18 19:33:00,
2013-01-18 12:43:00,34.0,-99.9,-100.00,SW,220,1.0,3.0,-999,0.00,,,-99.99,,2013-01-18 19:43:00,
2013-01-18 12:53:00,34.0,-99.9,-100.00,SW,220,1.0,3.0,-999,0.00,,,-99.99,,2013-01-18 19:53:00,
2013-01-18 13:00:00,33.0,-99.9,-100.00,WSW,242,3.0,6.0,-999,0.00,,,-99.99,,2013-01-18 20:00:00,
2013-01-18 13:34:00,33.0,-99.9,-100.00,WSW,242,3.0,6.0,-999,0.00,,,-99.99,,2013-01-18 20:34:00,
2013-01-18 13:43:00,33.0,-99.9,-100.00,WSW,242,3.0,6.0,-999,0.00,,,-99.99,,2013-01-18 20:43:00,
2013-01-18 13:53:00,33.0,-99.9,-100.00,WSW,242,3.0,6.0,-999,0.00,,,-99.99,,2013-01-18 20:53:00,
2013-01-18 14:00:00,33.0,-99.9,-100.00,WSW,244,3.0,7.0,-999,0.00,,,-99.99,,2013-01-18 21:00:00,
2013-01-18 14:33:00,33.0,-99.9,-100.00,WSW,244,3.0,7.0,-999,0.00,,,-99.99,,2013-01-18 21:33:00,
2013-01-18 14:43:00,33.0,-99.9,-100.00,WSW,244,3.0,7.0,-999,0.00,,,-99.99,,2013-01-18 21:43:00,
2013-01-18 14:53:00,33.0,-99.9,-100.00,WSW,244,3.0,7.0,-999,0.00,,,-99.99,,2013-01-18 21:53:00,
2013-01-18 15:00:00,33.0,-99.9,-100.00,WSW,253,4.0,8.0,-999,0.00,,,-99.99,,2013-01-18 22:00:00,
2013-01-18 15:33:00,33.0,-99.9,-100.00,WSW,253,4.0,8.0,-999,0.00,,,-99.99,,2013-01-18 22:33:00,
2013-01-18 15:43:00,33.0,-99.9,-100.00,WSW,253,4.0,8.0,-999,0.00,,,-99.99,,2013-01-18 22:43:00,
2013-01-18 15:53:00,33.0,-99.9,-100.00,WSW,253,4.0,8.0,-999,0.00,,,-99.99,,2013-01-18 22:53:00,
2013-01-18 17:00:00,29.0,-99.9,-100.00,West,262,6.0,10.0,-999,0.00,,,-99.99,,2013-01-19 00:00:00,
2013-01-18 17:33:00,29.0,-99.9,-100.00,West,262,6.0,10.0,-999,0.00,,,-99.99,,2013-01-19 00:33:00,
2013-01-18 17:43:00,29.0,-99.9,-100.00,West,262,6.0,10.0,-999,0.00,,,-99.99,,2013-01-19 00:43:00,
2013-01-18 17:53:00,29.0,-99.9,-100.00,West,262,6.0,10.0,-999,0.00,,,-99.99,,2013-01-19 00:53:00,
2013-01-18 18:00:00,27.0,-99.9,-100.00,WSW,255,6.0,10.0,-999,0.00,,,-99.99,,2013-01-19 01:00:00,
2013-01-18 18:33:00,27.0,-99.9,-100.00,WSW,255,6.0,10.0,-999,0.00,,,-99.99,,2013-01-19 01:33:00,
2013-01-18 18:43:00,27.0,-99.9,-100.00,WSW,255,6.0,10.0,-999,0.00,,,-99.99,,2013-01-19 01:43:00,
2013-01-18 18:53:00,27.0,-99.9,-100.00,WSW,255,6.0,10.0,-999,0.00,,,-99.99,,2013-01-19 01:53:00,
2013-01-18 19:00:00,26.0,-99.9,-100.00,WSW,247,6.0,11.0,-999,0.00,,,-99.99,,2013-01-19 02:00:00,
2013-01-18 19:33:00,26.0,-99.9,-100.00,WSW,247,6.0,11.0,-999,0.00,,,-99.99,,2013-01-19 02:33:00,
2013-01-18 19:43:00,26.0,-99.9,-100.00,WSW,247,6.0,11.0,-999,0.00,,,-99.99,,2013-01-19 02:43:00,
2013-01-18 19:53:00,26.0,-99.9,-100.00,WSW,247,6.0,11.0,-999,0.00,,,-99.99,,2013-01-19 02:53:00,
2013-01-18 20:00:00,26.0,-99.9,-100.00,WSW,245,7.0,10.0,-999,0.00,,,-99.99,,2013-01-19 03:00:00,
2013-01-18 20:33:00,26.0,-99.9,-100.00,WSW,245,7.0,10.0,-999,0.00,,,-99.99,,2013-01-19 03:33:00,
2013-01-18 20:44:00,26.0,-99.9,-100.00,WSW,245,7.0,10.0,-999,0.00,,,-99.99,,2013-01-19 03:44:00,
2013-01-18 20:53:00,26.0,-99.9,-100.00,WSW,245,7.0,10.0,-999,0.00,,,-99.99,,2013-01-19 03:53:00,
2013-01-18 21:00:00,26.0,-99.9,-100.00,WSW,245,7.0,14.0,-999,0.00,,,-99.99,,2013-01-19 04:00:00,
2013-01-18 21:33:00,26.0,-99.9,-100.00,WSW,245,7.0,14.0,-999,0.00,,,-99.99,,2013-01-19 04:33:00,
2013-01-18 21:43:00,26.0,-99.9,-100.00,WSW,245,7.0,14.0,-999,0.00,,,-99.99,,2013-01-19 04:43:00,
2013-01-18 21:53:00,26.0,-99.9,-100.00,WSW,245,7.0,14.0,-999,0.00,,,-99.99,,2013-01-19 04:53:00,
2013-01-18 22:00:00,26.0,-99.9,-100.00,WSW,254,6.0,11.0,-999,0.00,,,-99.99,,2013-01-19 05:00:00,
2013-01-18 22:33:00,26.0,-99.9,-100.00,WSW,254,6.0,11.0,-999,0.00,,,-99.99,,2013-01-19 05:33:00,
2013-01-18 22:43:00,26.0,-99.9,-100.00,WSW,254,6.0,11.0,-999,0.00,,,-99.99,,2013-01-19 05:43:00,
2013-01-18 22:53:00,26.0,-99.9,-100.00,WSW,254,6.0,11.0,-999,0.00,,,-99.99,,2013-01-19 05:53:00,
2013-01-18 23:00:00,26.0,-99.9,-100.00,West,265,7.0,11.0,-999,0.00,,,-99.99,,2013-01-19 06:00:00,
2013-01-18 23:33:00,26.0,-99.9,-100.00,West,265,7.0,11.0,-999,0.00,,,-99.99,,2013-01-19 06:33:00,
2013-01-18 23:43:00,26.0,-99.9,-100.00,West,265,7.0,11.0,-999,0.00,,,-99.99,,2013-01-19 06:43:00,
2013-01-18 23:53:00,26.0,-99.9,-100.00,West,265,7.0,11.0,-999,0.00,,,-99.99,,2013-01-19 06:53:00,